Retour au catalogue

DELTA 1 DEB

ActifSSO
NORAD 42588·DEBRIS·🇺🇸 United States

Lancé Nov 6, 1973 depuis Vandenberg Space Force Base

Loading…

Prochains Passages (prochaines 24 heures)

TLE

VieillissantSource: Space-Track

Époque: Sep 6, 2026, 05:34 UTC

1 42588U 73086JC  26249.23255969 -.00000017  00000-0  22905-3 0  9995
2 42588 102.4563 253.9310 0066725 192.3007 230.9536 12.36030810577204

Suivez DELTA 1 DEB en temps réel avec AllMySat

Download on the App Store